Temperature
17 17 17 17 17 17 18 17 17 17 17 17 18 18 18 18 18 18 18 18 18 18 18 17 17 17 17 17 17 17 17 17 17 17 16 16 16 16 16 16 16 16 16
17 17 17 17 17 17 17 17 17 17 17 17 17 17 17 18 17 17 17 18 18 18 18 18 17 17 17 17 17 17 17 17 17 17 16 16 16 16 16 16 16 16 16
17 17 17 17 17 17 17 17 17 17 17 18 17 17 18 17 17 17 17 17 17 17 18 18 17 17 17 17 17 17 17 17 17 16 17 16 16 16 16 16 16 16 16
17 17 17 17 17 17 17 17 17 18 17 18 18 18 18 18 17 17 17 17 17 17 17 17 17 17 17 17 17 17 17 17 17 16 16 16 16 16 16 16 16 16 16
17 17 17 17 17 17 17 18 18 17 17 17 18 18 18 18 18 17 17 17 17 17 17 17 17 17 17 17 17 17 17 17 16 16 16 16 16 16 16 16 16 16 16
17 17 17 17 18 18 18 18 17 17 17 17 18 18 18 18 18 18 18 18 17 17 17 17 17 17 17 17 17 17 17 17 16 16 16 16 16 16 16 16 16 16 16
18 18 18 17 18 18 18 17 17 17 17 17 18 18 18 18 18 18 17 17 17 17 17 17 17 17 17 17 17 17 17 16 16 16 16 16 16 16 16 16 16 16 16
18 18 18 18 18 18 17 17 17 17 17 17 18 18 19 18 18 18 17 17 17 17 17 17 17 17 16 16 17 17 17 16 16 16 16 16 16 16 16 16 16 16 15
18 18 18 18 18 18 18 17 17 17 17 17 17 18 19 19 18 18 17 17 17 17 17 17 16 16 16 16 16 16 16 16 16 16 16 16 16 16 16 16 15 15 15
18 18 18 18 18 18 17 17 17 17 17 17 17 17 17 17 18 18 18 17 17 17 17 17 17 16 16 16 16 16 16 16 16 16 16 16 16 16 16 16 15 15 15
18 18 18 18 18 18 18 17 17 17 17 17 17 17 17 17 17 18 18 17 17 17 17 16 16 16 16 16 16 16 16 16 16 16 16 16 16 15 15 15 15 15 15
18 18 18 18 18 18 17 17 17 17 17 17 17 17 17 17 17 18 18 17 17 17 16 16 16 16 16 16 16 16 16 16 16 16 15 15 15 15 15 15 15 15 15
18 18 18 18 18 18 17 17 17 17 17 17 17 17 17 17 17 17 17 17 17 17 16 16 16 16 16 15 15 16 16 16 16 15 15 15 15 15 15 15 15 15 15
18 18 18 18 18 17 17 17 17 17 17 17 17 16 17 17 17 17 17 17 17 18 17 17 16 16 16 15 15 15 15 15 15 15 15 15 15 15 15 15 15 15 15
18 18 18 18 17 17 17 17 17 17 17 16 16 16 16 16 16 16 16 16 17 17 18 17 16 16 15 15 15 15 15 15 15 15 15 15 15 15 15 15 14 14 14
18 18 18 17 17 17 17 17 17 17 17 17 16 16 16 16 16 16 16 16 16 16 17 17 16 16 15 15 15 15 15 15 15 15 15 15 15 15 15 14 14 14 14
18 18 18 18 17 17 17 17 16 17 16 16 16 16 16 16 16 16 16 16 16 16 16 16 16 15 15 15 15 14 14 14 14 15 15 15 15 14 14 14 14 14 14
18 18 18 17 17 17 17 16 16 16 16 16 16 16 15 15 15 15 15 15 15 15 15 15 15 15 15 14 14 14 14 14 14 14 14 14 14 14 14 14 14 14 14
18 18 17 17 17 17 16 16 16 16 16 16 16 15 15 15 15 15 15 15 15 15 15 15 15 15 15 15 14 14 14 14 14 14 14 14 14 14 14 14 14 13 13
18 17 17 17 17 16 16 16 16 16 16 16 15 15 15 15 15 15 15 15 15 15 15 15 15 15 15 14 14 14 14 14 14 13 13 13 13 13 13 13 13 13 13
17 17 17 17 16 16 16 16 16 16 15 15 15 15 15 15 15 15 15 14 14 14 15 15 15 15 15 14 14 14 14 14 13 13 13 13 13 13 13 13 13 13 13
17 17 17 17 16 16 16 16 16 15 15 15 15 15 15 15 15 15 15 15 14 14 14 14 15 14 14 14 14 13 13 13 13 13 13 13 13 13 12 12 13 13 12
17 17 17 16 16 16 16 16 16 15 15 15 15 14 15 15 15 15 14 14 14 14 14 14 14 13 13 13 13 13 13 13 13 13 12 13 12 12 12 12 12 12 12
17 17 16 16 16 16 16 16 16 15 15 15 14 14 14 14 14 14 14 14 14 14 14 13 13 13 13 13 13 12 12 12 12 12 12 12 12 12 12 12 12 12 12
16 16 16 16 16 16 16 16 16 15 15 15 14 14 14 14 14 14 13 13 13 13 13 13 13 13 13 13 13 12 12 13 13 13 12 12 12 12 12 12 12 12 11
16 16 16 15 15 15 16 16 15 14 14 14 14 14 14 14 14 14 13 13 13 13 13 13 13 13 13 13 13 12 12 12 13 13 12 12 12 12 12 11 11 11 11
Wind_Speed
5 5 4 4 4 5 4 3 3 3 2 2 2 2 2 2 2 2 5 8 6 5 5 5 5 5 5 5 6 6 7 8 8 9 9 9 9 10 9 9 10 10 11
5 4 4 4 4 4 4 3 3 2 1 2 2 2 1 1 2 2 2 6 7 6 5 4 4 5 5 5 5 7 7 8 9 9 9 9 9 9 9 10 10 11 11
4 3 4 3 4 4 4 3 3 2 1 1 2 1 1 1 1 1 1 1 4 7 6 5 5 5 5 5 5 5 7 8 8 8 8 8 8 9 9 9 10 10 11
3 2 3 3 3 2 2 2 2 1 2 1 1 1 0 1 1 1 1 1 1 2 5 6 5 5 5 5 5 5 5 6 7 7 7 7 8 8 9 9 9 9 9
3 2 2 3 2 2 2 2 2 1 1 1 1 1 0 0 0 1 1 2 2 2 2 5 7 6 5 5 5 6 6 6 7 7 7 7 8 8 8 8 7 7 8
2 1 1 2 2 2 2 2 2 2 1 1 1 2 1 1 0 1 2 2 2 2 2 2 3 5 7 6 5 6 6 6 6 6 7 7 8 8 9 9 9 8 8
2 1 2 1 1 2 2 1 1 1 0 0 0 0 0 0 0 0 1 1 1 1 1 2 2 2 3 6 6 5 5 5 5 6 7 7 8 8 9 9 9 9 9
1 1 1 1 1 1 1 1 1 1 1 1 2 2 1 1 1 0 1 1 1 1 1 2 1 2 3 1 3 4 4 4 5 5 6 7 7 7 8 10 11 11 11
1 1 1 2 2 2 2 2 2 2 2 1 2 3 2 2 1 1 1 1 1 2 2 1 2 1 2 2 1 3 2 3 4 5 5 6 6 7 7 8 9 10 10
1 1 1 1 2 2 2 2 2 2 3 2 1 1 2 2 3 2 2 1 2 2 3 3 2 1 1 2 1 1 1 2 3 4 4 4 5 6 6 7 7 8 8
0 1 1 1 2 2 2 3 3 3 3 3 2 2 1 2 3 3 2 2 2 2 2 2 2 2 1 1 1 1 1 1 3 3 4 4 5 5 6 7 8 8 8
1 0 1 1 2 2 2 2 3 2 3 3 3 2 2 2 2 3 3 3 2 2 2 2 2 2 1 1 1 3 0 2 3 3 4 4 5 5 6 6 7 7 7
1 1 1 1 1 2 2 2 2 2 3 3 3 3 3 2 3 3 3 4 3 3 2 2 2 2 2 2 0 2 1 2 3 4 4 5 5 5 6 6 6 7 7
1 1 1 1 1 2 2 2 2 2 2 3 3 3 3 3 3 3 4 4 4 4 3 2 1 2 2 2 1 1 2 2 3 4 5 5 5 6 6 6 7 7 7
1 1 1 1 1 2 2 2 1 2 2 2 2 2 3 3 4 4 4 4 5 5 4 1 2 1 2 2 1 3 3 0 3 5 5 5 6 6 6 6 7 7 7
2 2 2 2 2 2 2 3 2 1 2 2 3 3 4 3 3 3 4 4 5 5 5 3 2 2 2 3 1 3 3 2 4 5 5 5 5 5 5 5 5 6 6
3 3 3 2 2 2 2 3 4 3 3 3 3 3 4 4 4 4 4 4 4 4 5 4 3 2 3 4 3 3 4 4 2 2 3 4 4 4 3 4 4 4 4
4 3 3 3 3 3 3 3 4 4 4 4 4 4 4 3 4 4 4 4 4 4 5 5 4 4 4 4 3 4 4 3 3 1 3 3 3 3 3 4 4 4 4
4 4 4 4 4 3 3 3 4 5 4 4 4 4 5 5 5 4 5 5 5 5 5 6 5 4 4 3 3 4 4 3 4 2 3 4 3 3 4 4 4 4 3
5 4 4 4 4 4 4 4 4 5 4 4 4 4 5 5 5 5 5 5 5 5 5 6 5 4 4 3 4 4 4 3 4 3 2 2 4 5 5 5 5 4 3
5 4 4 4 4 4 3 4 5 5 4 4 4 5 5 4 5 5 6 5 5 6 5 5 5 5 4 3 4 4 4 4 3 3 3 3 2 3 3 5 5 3 2
4 4 5 5 5 4 0 2 5 5 5 5 5 5 5 4 3 4 5 5 6 6 6 6 5 5 5 5 4 5 5 5 4 2 3 4 3 2 2 2 3 3 3
5 5 5 5 5 3 2 3 5 6 5 5 5 5 5 3 3 4 4 6 6 7 7 7 7 7 6 5 5 6 5 5 5 4 4 4 3 3 2 0 5 4 4
4 5 5 5 5 3 3 4 5 6 6 5 5 5 5 4 4 5 5 5 5 5 5 6 6 7 6 5 5 6 5 5 5 4 4 5 4 3 2 1 5 5 5
4 5 5 5 5 4 3 4 5 6 5 5 5 5 5 5 3 5 5 5 5 5 3 3 3 4 4 5 6 6 5 5 5 4 3 4 4 3 3 2 3 7 7
4 4 4 4 5 5 4 5 6 5 5 5 5 5 4 4 3 4 5 5 6 6 5 3 4 5 5 5 5 6 6 6 5 4 2 4 4 4 3 3 2 2 4
Wind_Direction
63 61 55 55 62 74 85 76 75 83 92 117 120 113 110 114 116 126 122 137 157 177 194 208 210 213 218 218 218 223 224 226 226 227 228 228 229 228 230 233 236 235 233
61 56 65 57 54 58 58 63 73 78 85 92 105 113 124 114 113 129 129 141 159 177 193 208 218 224 228 232 234 236 237 236 233 232 233 231 233 233 234 237 238 236 234
70 63 65 61 53 56 66 67 65 72 106 109 104 110 124 103 101 141 180 171 160 172 186 199 212 220 229 237 241 239 240 237 235 231 229 229 235 237 239 240 240 235 232
70 58 58 56 51 52 53 61 66 51 65 61 60 31 72 142 183 192 196 191 199 175 175 185 198 211 224 230 234 237 235 229 230 229 229 229 235 238 238 239 239 234 232
73 61 50 43 31 37 30 12 57 26 56 46 67 100 5 317 205 205 210 200 185 209 206 171 190 209 224 232 236 239 237 235 232 230 231 233 235 236 235 235 233 234 234
77 40 73 45 18 24 14 21 19 26 21 28 26 40 16 347 298 236 231 210 202 213 229 250 212 203 206 224 236 241 245 248 243 238 236 239 240 239 234 233 232 232 231
73 60 35 43 358 20 0 349 359 54 60 359 267 189 185 162 71 256 260 263 215 224 251 281 281 286 202 196 215 232 247 259 253 246 241 242 243 240 232 230 231 232 231
63 96 26 359 24 22 12 354 327 318 310 291 293 279 257 195 165 186 229 240 279 257 237 243 281 279 286 228 150 194 238 266 269 261 255 248 245 244 240 234 232 231 229
69 18 3 356 344 344 8 331 309 298 302 300 313 303 307 334 312 207 251 267 287 290 278 273 257 270 265 289 284 180 212 270 280 281 274 258 247 244 244 242 239 236 233
22 6 351 343 325 335 335 309 347 303 290 297 297 303 316 316 293 277 241 260 274 270 285 288 289 263 266 269 4 29 149 278 286 291 290 275 258 251 250 249 246 246 240
286 339 328 324 308 312 336 329 326 312 305 306 305 297 285 257 266 281 294 297 273 270 271 266 273 282 286 276 279 64 100 275 285 287 290 285 275 263 258 258 254 250 243
194 131 312 316 301 318 316 312 312 313 319 313 304 298 285 291 287 285 284 280 293 296 292 295 279 268 269 271 300 74 134 261 272 276 281 284 277 269 260 258 257 254 247
202 137 290 294 307 307 297 299 292 317 307 300 294 301 304 297 295 293 289 294 296 279 252 254 264 275 277 282 255 103 238 234 259 269 274 277 272 266 258 257 257 257 253
236 118 220 257 279 283 293 296 289 291 297 296 298 303 298 296 293 287 287 291 289 280 258 264 267 268 285 279 29 254 270 194 251 267 272 274 272 263 258 257 257 257 257
234 218 243 257 263 268 287 279 287 297 295 284 286 273 281 293 289 285 280 281 283 286 290 257 252 263 272 282 297 276 286 220 265 275 273 273 272 266 260 259 265 262 262
251 247 251 261 265 269 277 275 266 276 274 278 292 309 297 293 293 282 277 276 273 278 286 291 283 284 300 286 257 285 280 235 247 256 262 265 267 266 261 262 264 263 261
233 247 253 262 269 272 278 281 288 280 274 280 282 283 286 299 293 285 275 269 269 269 272 280 274 266 263 279 285 285 284 282 285 209 249 262 257 254 254 258 262 264 261
230 239 254 261 266 267 270 274 280 282 275 274 280 285 284 283 277 280 283 277 275 270 271 280 277 273 263 264 275 281 288 289 295 210 213 245 251 245 242 245 248 249 251
232 240 245 253 262 264 265 269 275 280 278 277 277 276 281 285 282 286 279 277 275 270 268 268 273 276 271 270 277 274 286 293 287 240 202 208 214 222 237 239 234 231 232
231 238 243 246 254 257 258 265 266 268 271 272 271 273 278 278 280 281 273 270 275 275 269 266 271 270 268 268 270 281 287 291 296 300 299 266 213 210 219 218 216 216 218
231 234 244 246 250 251 256 261 262 259 264 268 271 273 275 284 302 295 292 291 283 276 272 270 273 274 278 286 285 290 290 289 285 290 289 280 257 250 225 212 204 190 186
234 238 243 248 249 257 204 257 265 262 260 261 266 270 266 255 258 259 281 293 291 278 281 282 281 284 289 287 296 289 289 290 293 293 283 286 283 281 283 265 151 159 178
234 236 241 246 250 246 199 235 259 261 260 263 267 271 276 275 265 269 254 240 253 256 263 271 278 282 284 290 288 283 288 289 298 302 287 286 284 281 278 97 134 151 170
238 238 242 246 249 241 195 224 251 252 259 262 262 266 273 278 282 289 276 274 274 267 257 252 261 271 277 285 277 278 278 266 265 263 269 281 286 287 286 201 147 156 162
245 242 240 245 245 244 207 214 238 250 251 255 257 256 261 267 288 288 271 274 278 273 253 237 262 273 290 283 282 274 275 274 279 279 267 278 283 290 281 255 181 168 167
250 253 249 250 247 250 213 205 230 247 249 251 248 244 237 254 267 270 264 270 275 278 282 266 243 240 246 240 243 259 270 273 278 280 276 278 280 279 270 258 251 203 189
Height
1540 1541 1540 1541 1542 1542 1542 1542 1543 1543 1543 1544 1545 1545 1546 1546 1546 1547 1546 1546 1546 1546 1546 1546 1547 1547 1547 1547 1547 1547 1548 1548 1548 1549 1549 1549 1550 1550 1550 1550 1551 1551 1552
1542 1542 1543 1543 1543 1544 1544 1544 1544 1544 1545 1545 1545 1546 1546 1546 1546 1546 1547 1546 1545 1546 1546 1546 1546 1545 1545 1545 1545 1546 1546 1546 1546 1546 1546 1546 1547 1547 1547 1548 1548 1548 1549
1544 1544 1545 1545 1545 1545 1545 1545 1545 1545 1545 1546 1546 1546 1546 1546 1546 1546 1546 1546 1546 1545 1545 1545 1545 1544 1544 1544 1544 1543 1544 1544 1544 1544 1544 1544 1544 1544 1545 1545 1545 1545 1546
1546 1546 1546 1546 1546 1546 1546 1546 1546 1546 1546 1546 1546 1545 1545 1545 1545 1545 1545 1545 1545 1545 1544 1544 1543 1543 1543 1542 1542 1542 1542 1542 1542 1542 1542 1542 1542 1542 1542 1542 1542 1542 1543
1547 1547 1547 1547 1547 1547 1547 1547 1547 1546 1546 1546 1545 1545 1545 1545 1544 1544 1544 1544 1544 1544 1544 1543 1542 1542 1541 1541 1540 1540 1540 1539 1539 1539 1539 1539 1539 1539 1539 1539 1539 1539 1540
1548 1548 1548 1547 1548 1548 1547 1547 1546 1546 1545 1545 1545 1545 1544 1544 1544 1543 1543 1543 1543 1542 1542 1542 1541 1541 1540 1539 1539 1538 1538 1537 1537 1537 1537 1536 1536 1536 1536 1536 1536 1536 1537
1549 1549 1549 1548 1548 1548 1547 1547 1546 1546 1546 1545 1545 1545 1544 1543 1542 1542 1542 1542 1542 1541 1540 1540 1540 1539 1539 1537 1537 1536 1536 1535 1535 1534 1534 1534 1533 1533 1533 1533 1533 1533 1533
1549 1550 1549 1549 1548 1548 1547 1546 1546 1546 1546 1545 1545 1544 1544 1544 1542 1541 1541 1540 1540 1540 1539 1539 1538 1537 1537 1537 1535 1534 1533 1533 1532 1531 1531 1531 1530 1530 1530 1530 1529 1529 1530
1550 1549 1549 1549 1548 1548 1547 1546 1546 1545 1545 1545 1544 1544 1543 1542 1542 1541 1540 1539 1539 1538 1538 1537 1536 1536 1535 1535 1534 1532 1531 1531 1530 1529 1528 1528 1527 1527 1527 1526 1526 1526 1527
1549 1549 1549 1548 1548 1548 1547 1546 1546 1545 1544 1544 1543 1542 1542 1541 1541 1540 1540 1539 1538 1537 1536 1536 1535 1534 1533 1533 1531 1530 1529 1528 1528 1527 1526 1525 1525 1524 1524 1523 1523 1523 1523
1549 1549 1548 1547 1547 1547 1546 1545 1544 1544 1544 1543 1543 1542 1541 1540 1540 1539 1538 1538 1537 1536 1535 1534 1533 1533 1532 1531 1529 1528 1527 1526 1525 1524 1523 1522 1522 1521 1521 1520 1520 1520 1520
1548 1548 1547 1546 1546 1545 1545 1544 1543 1543 1542 1541 1541 1541 1540 1540 1539 1538 1537 1536 1535 1535 1533 1533 1532 1531 1530 1529 1528 1526 1525 1524 1523 1522 1521 1520 1519 1518 1518 1517 1517 1517 1517
1548 1547 1547 1545 1545 1544 1543 1542 1542 1541 1540 1539 1539 1539 1539 1538 1537 1537 1536 1535 1534 1533 1532 1531 1530 1530 1529 1528 1526 1524 1522 1521 1520 1519 1518 1517 1516 1516 1515 1514 1514 1514 1513
1547 1545 1545 1544 1543 1543 1542 1541 1541 1540 1539 1538 1538 1537 1537 1537 1536 1535 1535 1534 1533 1532 1531 1530 1529 1528 1527 1526 1524 1522 1520 1519 1518 1517 1515 1514 1514 1513 1512 1511 1511 1511 1510
1545 1544 1544 1543 1542 1542 1541 1540 1539 1538 1538 1537 1537 1536 1535 1535 1534 1533 1532 1532 1532 1530 1529 1528 1527 1526 1525 1523 1521 1520 1518 1516 1515 1514 1513 1512 1511 1510 1509 1508 1508 1507 1507
1543 1543 1542 1542 1541 1540 1539 1538 1538 1537 1536 1535 1535 1534 1533 1533 1532 1531 1530 1530 1529 1529 1527 1526 1525 1524 1522 1522 1520 1518 1516 1514 1512 1511 1510 1508 1507 1506 1505 1505 1504 1504 1504
1541 1541 1540 1540 1539 1539 1538 1537 1537 1536 1535 1534 1533 1532 1531 1530 1530 1529 1528 1527 1527 1526 1525 1524 1523 1521 1519 1518 1517 1516 1514 1512 1511 1509 1507 1506 1504 1503 1502 1502 1501 1501 1500
1538 1538 1538 1537 1537 1536 1536 1535 1534 1534 1533 1532 1531 1530 1529 1528 1527 1526 1526 1525 1524 1523 1523 1521 1520 1519 1517 1516 1514 1512 1512 1511 1509 1506 1505 1503 1502 1500 1500 1499 1498 1498 1497
1536 1536 1535 1535 1534 1534 1533 1533 1532 1531 1531 1530 1529 1528 1527 1526 1525 1524 1523 1523 1522 1521 1520 1519 1518 1516 1515 1514 1512 1510 1509 1507 1506 1504 1502 1500 1499 1498 1497 1496 1495 1495 1494
1533 1533 1533 1532 1532 1531 1531 1530 1530 1529 1528 1527 1526 1525 1525 1523 1522 1521 1521 1519 1519 1518 1517 1516 1515 1514 1512 1511 1509 1508 1507 1505 1503 1502 1500 1498 1497 1495 1494 1493 1492 1492 1491
1530 1530 1530 1530 1529 1529 1528 1528 1527 1526 1525 1524 1523 1522 1522 1520 1519 1518 1518 1517 1516 1515 1515 1514 1513 1512 1510 1509 1508 1506 1505 1503 1501 1499 1498 1496 1495 1493 1492 1490 1489 1489 1488
1527 1527 1527 1527 1526 1526 1525 1524 1523 1523 1522 1521 1520 1519 1519 1518 1516 1515 1514 1513 1512 1512 1511 1511 1510 1509 1507 1506 1505 1504 1502 1501 1499 1497 1495 1494 1493 1491 1489 1488 1486 1486 1485
1524 1524 1524 1523 1523 1522 1521 1521 1520 1519 1519 1518 1518 1517 1517 1515 1514 1512 1511 1509 1509 1508 1507 1507 1506 1505 1504 1503 1502 1500 1499 1498 1496 1495 1493 1491 1491 1489 1487 1485 1483 1482 1481
1521 1521 1520 1520 1519 1518 1518 1517 1516 1516 1515 1515 1514 1513 1513 1511 1511 1509 1508 1507 1506 1505 1504 1503 1502 1501 1501 1499 1498 1497 1496 1494 1493 1492 1491 1489 1488 1486 1485 1483 1481 1479 1478
1518 1517 1517 1516 1516 1515 1514 1513 1512 1512 1512 1511 1511 1510 1509 1508 1507 1506 1505 1504 1502 1501 1501 1499 1498 1497 1496 1496 1495 1495 1493 1492 1491 1489 1488 1487 1486 1484 1482 1480 1478 1476 1475
1514 1514 1514 1513 1512 1511 1510 1510 1509 1509 1508 1508 1507 1507 1505 1505 1504 1503 1502 1501 1499 1498 1498 1496 1495 1494 1494 1493 1492 1491 1490 1490 1488 1486 1485 1484 1483 1482 1480 1478 1476 1475 1473